Location: Alta
(39.2070°N, 120.8111°W)
Time: 06:16:15
(UTC+00:00)

CZ-4B DEB - Pass Details

Date: 09 December 2023
Orbit: 838 x 858 km, 99.0° (Epoch: 02 March)

Event Time Altitude Azimuth Distance (km) Brightness Sun altitude
Rises 02:38:22 0° 152° (SSE) 3,414 7.2 -22.2°
Reaches altitude 10° 02:40:45 10° 148° (SSE) 2,483 6.4 -22.7°
Enters shadow 02:41:34 15° 146° (SSE) 2,175 6.1 -22.8°
Exits shadow 02:45:45 55° 89° (E) 1,023 4.2 -23.6°
Maximum altitude 02:46:08 57° 72° (ENE) 1,010 4.2 -23.7°
Drops below altitude 10° 02:51:33 10° 355° (N) 2,501 6.6 -24.7°
Sets 02:53:58 0° 351° (N) 3,441 7.4 -25.2°
